This is the latest recevied weather packets stored in our database for station/object K4AMF. If no packets are shown the sender has not sent any weather packets the latest 10 day(s).
| Time | Temp. | Humidity | Pressure | Rain* | Wind** | Luminosity | Snow |
|---|---|---|---|---|---|---|---|
| 1778072960 | 22.78° C | 79% | 1018.2 hPa | 0 mm | - | 354 W/m² | - |
| 1778072656 | 22.78° C | 80% | 1018 hPa | 0 mm | - | 317 W/m² | - |
| 1778072354 | 22.22° C | 80% | 1018 hPa | 0 mm | - | 280 W/m² | - |
| 1778072053 | 22.22° C | 80% | 1018.2 hPa | 0 mm | - | 119 W/m² | - |
| 1778071750 | 21.67° C | 81% | 1018.2 hPa | 0 mm | - | 145 W/m² | - |
| 1778071447 | 21.67° C | 80% | 1017.9 hPa | 0 mm | - | 99 W/m² | - |
| 1778071145 | 21.67° C | 80% | 1018.2 hPa | 0 mm | - | 99 W/m² | - |
| 1778070843 | 21.67° C | 80% | 1018.1 hPa | 0 mm | - | 99 W/m² | - |
| 1778070540 | 21.11° C | 80% | 1017.7 hPa | 0 mm | - | 98 W/m² | - |
| 1778070237 | 21.11° C | 80% | 1018 hPa | 0 mm | - | 78 W/m² | - |
| 1778069935 | 21.11° C | 81% | 1017.6 hPa | 0 mm | - | 75 W/m² | - |
| 1778069632 | 21.11° C | 81% | 1017.7 hPa | 0 mm | - | 77 W/m² | - |
| 1778069329 | 20.56° C | 82% | 1017.4 hPa | 0 mm | - | 74 W/m² | - |
| 1778069027 | 20.56° C | 82% | 1017.6 hPa | 0 mm | - | 66 W/m² | - |
| 1778068724 | 20.56° C | 82% | 1017.5 hPa | 0 mm | - | 62 W/m² | - |
| 1778068422 | 20° C | 82% | 1017.6 hPa | 0 mm | - | 65 W/m² | - |
| 1778068120 | 20° C | 82% | 1017.3 hPa | 0 mm | - | 64 W/m² | - |
| 1778067817 | 20° C | 82% | 1017.6 hPa | 0 mm | - | 65 W/m² | - |
| 1778067516 | 20° C | 83% | 1017.4 hPa | 0 mm | - | 62 W/m² | - |
| 1778067213 | 19.44° C | 83% | 1017.4 hPa | 0 mm | - | 55 W/m² | - |
| 1778066909 | 19.44° C | 83% | 1017.3 hPa | 0 mm | - | 50 W/m² | - |
| 1778066606 | 19.44° C | 84% | 1017.3 hPa | 0 mm | - | 42 W/m² | - |
| 1778066304 | 18.89° C | 84% | 1017.3 hPa | 0 mm | - | 34 W/m² | - |
| 1778066002 | 18.89° C | 85% | 1017.5 hPa | 0 mm | - | 28 W/m² | - |
| 1778065699 | 18.89° C | 85% | 1017.3 hPa | 0 mm | - | 23 W/m² | - |
* Rain latest hour (hover to see other rain measurements)
** Current wind speed in m/s (hover to see current wind gust speed)